QPF
0.00 0.00 0.00 0.00 0.01 0.01 0.00 0.00 0.00 0.00 0.00 0.00 0.00 0.00 0.01 0.01 0.03 0.02 0.01 0.00 0.00 0.00 0.00 0.01 0.02 0.01 0.01 0.00 0.00 0.00 0.00 0.00 0.00 0.00 0.00 0.00 0.00 0.00 0.00 0.00 0.01 0.01 0.01 0.01 0.02 0.01 0.02 0.03 0.04
0.00 0.00 0.00 0.01 0.01 0.01 0.00 0.00 0.00 0.00 0.00 0.00 0.00 0.00 0.00 0.01 0.01 0.01 0.00 0.00 0.00 0.00 0.00 0.00 0.01 0.01 0.01 0.00 0.00 0.00 0.00 0.00 0.00 0.00 0.00 0.00 0.00 0.01 0.00 0.01 0.01 0.01 0.01 0.01 0.01 0.01 0.02 0.03 0.04
0.00 0.01 0.01 0.00 0.00 0.00 0.01 0.00 0.00 0.00 0.00 0.00 0.00 0.00 0.00 0.00 0.01 0.01 0.00 0.00 0.00 0.00 0.00 0.00 0.01 0.01 0.00 0.00 0.00 0.00 0.00 0.00 0.00 0.00 0.00 0.00 0.01 0.01 0.00 0.00 0.01 0.01 0.01 0.01 0.01 0.01 0.01 0.02 0.02
0.00 0.00 0.01 0.00 0.00 0.00 0.01 0.01 0.00 0.00 0.00 0.00 0.00 0.00 0.00 0.00 0.01 0.01 0.00 0.00 0.00 0.00 0.00 0.01 0.01 0.01 0.00 0.00 0.00 0.00 0.00 0.00 0.00 0.00 0.00 0.00 0.01 0.01 0.01 0.01 0.01 0.01 0.01 0.01 0.01 0.01 0.01 0.01 0.03
0.00 0.00 0.00 0.00 0.00 0.00 0.01 0.01 0.00 0.00 0.00 0.01 0.00 0.00 0.00 0.00 0.00 0.00 0.00 0.00 0.00 0.00 0.00 0.01 0.01 0.01 0.00 0.00 0.00 0.00 0.00 0.00 0.01 0.01 0.01 0.01 0.01 0.01 0.01 0.01 0.01 0.01 0.01 0.01 0.01 0.01 0.01 0.02 0.03
0.00 0.00 0.00 0.00 0.00 0.00 0.00 0.00 0.00 0.00 0.00 0.00 0.00 0.00 0.00 0.00 0.00 0.00 0.00 0.00 0.00 0.00 0.01 0.01 0.01 0.01 0.00 0.01 0.00 0.00 0.00 0.00 0.01 0.01 0.01 0.01 0.01 0.01 0.01 0.00 0.01 0.01 0.00 0.01 0.01 0.01 0.01 0.03 0.04
0.00 0.00 0.00 0.00 0.00 0.00 0.00 0.00 0.00 0.00 0.00 0.00 0.00 0.00 0.00 0.00 0.00 0.00 0.00 0.01 0.01 0.01 0.01 0.01 0.01 0.01 0.01 0.01 0.01 0.01 0.01 0.01 0.01 0.01 0.01 0.01 0.01 0.01 0.01 0.01 0.01 0.01 0.01 0.01 0.00 0.01 0.02 0.03 0.04
0.00 0.00 0.00 0.00 0.00 0.00 0.00 0.00 0.00 0.00 0.00 0.00 0.00 0.01 0.00 0.00 0.00 0.00 0.01 0.02 0.02 0.01 0.01 0.01 0.01 0.01 0.01 0.01 0.01 0.01 0.01 0.01 0.01 0.01 0.01 0.01 0.01 0.01 0.01 0.01 0.01 0.01 0.01 0.01 0.01 0.01 0.02 0.02 0.03
0.00 0.00 0.00 0.00 0.00 0.00 0.00 0.00 0.00 0.00 0.00 0.00 0.00 0.00 0.00 0.00 0.00 0.01 0.02 0.04 0.02 0.01 0.01 0.01 0.01 0.01 0.01 0.01 0.01 0.01 0.01 0.01 0.01 0.01 0.01 0.02 0.01 0.00 0.00 0.01 0.01 0.01 0.01 0.01 0.01 0.01 0.02 0.02 0.02
0.00 0.00 0.00 0.00 0.00 0.00 0.00 0.00 0.00 0.00 0.00 0.00 0.00 0.00 0.00 0.00 0.01 0.02 0.03 0.03 0.02 0.02 0.02 0.03 0.02 0.01 0.01 0.01 0.01 0.01 0.01 0.01 0.01 0.01 0.01 0.01 0.00 0.00 0.00 0.01 0.02 0.02 0.01 0.01 0.02 0.03 0.03 0.02 0.02
0.00 0.00 0.00 0.00 0.00 0.00 0.00 0.00 0.00 0.00 0.00 0.00 0.00 0.00 0.00 0.00 0.02 0.03 0.03 0.03 0.05 0.07 0.06 0.05 0.05 0.03 0.02 0.00 0.01 0.00 0.00 0.00 0.00 0.01 0.01 0.00 0.00 0.00 0.00 0.00 0.01 0.01 0.02 0.01 0.02 0.02 0.02 0.01 0.01
0.00 0.00 0.00 0.00 0.00 0.00 0.00 0.00 0.00 0.00 0.00 0.00 0.00 0.00 0.01 0.01 0.02 0.04 0.03 0.03 0.13 0.22 0.13 0.08 0.06 0.04 0.03 0.02 0.01 0.00 0.00 0.00 0.00 0.00 0.00 0.00 0.00 0.00 0.00 0.00 0.00 0.01 0.01 0.01 0.01 0.01 0.01 0.01 0.01
0.00 0.00 0.00 0.00 0.00 0.00 0.00 0.00 0.00 0.00 0.00 0.00 0.00 0.00 0.01 0.02 0.03 0.05 0.04 0.05 0.12 0.12 0.08 0.06 0.05 0.04 0.03 0.04 0.03 0.02 0.01 0.00 0.00 0.01 0.01 0.00 0.00 0.00 0.00 0.00 0.01 0.01 0.01 0.01 0.01 0.02 0.03 0.02 0.02
0.00 0.00 0.00 0.00 0.00 0.00 0.00 0.00 0.00 0.00 0.00 0.00 0.00 0.01 0.01 0.02 0.03 0.04 0.05 0.07 0.12 0.15 0.13 0.08 0.07 0.05 0.04 0.04 0.05 0.02 0.01 0.00 0.00 0.00 0.01 0.00 0.01 0.01 0.00 0.01 0.01 0.01 0.01 0.01 0.02 0.03 0.04 0.03 0.03
0.00 0.00 0.00 0.00 0.00 0.00 0.00 0.00 0.00 0.00 0.00 0.00 0.01 0.01 0.02 0.05 0.04 0.04 0.07 0.09 0.14 0.17 0.17 0.13 0.11 0.10 0.10 0.10 0.07 0.04 0.02 0.01 0.01 0.00 0.00 0.01 0.01 0.01 0.01 0.01 0.01 0.02 0.02 0.01 0.02 0.04 0.03 0.04 0.04
0.00 0.00 0.00 0.00 0.00 0.00 0.00 0.00 0.00 0.00 0.00 0.00 0.01 0.01 0.02 0.06 0.05 0.07 0.11 0.13 0.19 0.20 0.18 0.19 0.19 0.21 0.18 0.16 0.13 0.09 0.06 0.04 0.02 0.01 0.02 0.01 0.01 0.01 0.01 0.01 0.01 0.02 0.02 0.01 0.02 0.04 0.03 0.03 0.03
0.00 0.00 0.00 0.00 0.00 0.00 0.00 0.00 0.00 0.00 0.00 0.00 0.00 0.01 0.02 0.03 0.05 0.10 0.10 0.11 0.14 0.24 0.34 0.40 0.35 0.31 0.27 0.27 0.27 0.20 0.16 0.11 0.06 0.05 0.05 0.03 0.02 0.01 0.01 0.01 0.01 0.01 0.01 0.01 0.02 0.02 0.01 0.02 0.03
0.00 0.00 0.00 0.00 0.00 0.00 0.00 0.00 0.00 0.00 0.00 0.00 0.00 0.00 0.01 0.02 0.03 0.05 0.06 0.09 0.16 0.28 0.40 0.50 0.46 0.36 0.33 0.28 0.24 0.21 0.17 0.15 0.11 0.10 0.07 0.05 0.03 0.02 0.01 0.01 0.01 0.01 0.01 0.01 0.01 0.02 0.01 0.01 0.02
0.00 0.00 0.00 0.00 0.00 0.00 0.00 0.00 0.00 0.00 0.00 0.00 0.00 0.01 0.01 0.03 0.04 0.04 0.05 0.09 0.15 0.17 0.18 0.24 0.30 0.32 0.26 0.22 0.18 0.15 0.11 0.10 0.13 0.14 0.11 0.08 0.05 0.03 0.02 0.01 0.01 0.01 0.01 0.01 0.01 0.02 0.01 0.01 0.01
0.00 0.00 0.00 0.00 0.00 0.00 0.00 0.00 0.00 0.00 0.00 0.00 0.00 0.01 0.01 0.01 0.03 0.03 0.04 0.07 0.10 0.13 0.15 0.15 0.21 0.32 0.31 0.23 0.22 0.23 0.24 0.21 0.18 0.19 0.16 0.11 0.06 0.04 0.02 0.02 0.01 0.01 0.02 0.01 0.01 0.01 0.01 0.01 0.01
0.00 0.00 0.00 0.00 0.00 0.00 0.00 0.00 0.00 0.00 0.00 0.00 0.01 0.01 0.01 0.02 0.02 0.02 0.04 0.07 0.07 0.09 0.13 0.12 0.13 0.22 0.27 0.28 0.32 0.33 0.34 0.33 0.25 0.19 0.15 0.10 0.06 0.05 0.03 0.03 0.02 0.02 0.01 0.02 0.02 0.02 0.01 0.01 0.01
0.00 0.00 0.00 0.00 0.00 0.00 0.00 0.00 0.00 0.00 0.00 0.01 0.01 0.01 0.01 0.01 0.01 0.02 0.04 0.07 0.06 0.06 0.14 0.18 0.14 0.17 0.18 0.19 0.20 0.21 0.19 0.17 0.15 0.13 0.11 0.09 0.07 0.05 0.05 0.04 0.03 0.02 0.01 0.02 0.02 0.02 0.01 0.01 0.01
0.00 0.00 0.00 0.00 0.00 0.00 0.00 0.00 0.00 0.00 0.00 0.00 0.00 0.01 0.01 0.01 0.02 0.03 0.04 0.06 0.06 0.07 0.11 0.16 0.14 0.14 0.13 0.14 0.16 0.13 0.09 0.10 0.11 0.10 0.12 0.12 0.10 0.08 0.06 0.04 0.04 0.03 0.02 0.02 0.01 0.01 0.01 0.00 0.00
0.00 0.00 0.00 0.00 0.00 0.00 0.00 0.00 0.00 0.00 0.00 0.00 0.00 0.00 0.00 0.01 0.02 0.03 0.03 0.04 0.06 0.08 0.07 0.09 0.11 0.12 0.13 0.15 0.16 0.12 0.08 0.09 0.10 0.08 0.09 0.09 0.08 0.07 0.06 0.05 0.04 0.03 0.03 0.02 0.01 0.00 0.00 0.00 0.00
0.00 0.00 0.00 0.00 0.00 0.00 0.00 0.00 0.00 0.00 0.00 0.00 0.00 0.00 0.00 0.01 0.02 0.03 0.02 0.02 0.03 0.05 0.05 0.06 0.08 0.10 0.10 0.11 0.14 0.13 0.09 0.07 0.07 0.08 0.09 0.08 0.05 0.04 0.04 0.06 0.05 0.05 0.03 0.02 0.02 0.01 0.01 0.01 0.01
0.00 0.00 0.00 0.00 0.00 0.00 0.00 0.00 0.00 0.00 0.00 0.00 0.00 0.00 0.01 0.02 0.02 0.01 0.01 0.02 0.02 0.03 0.04 0.05 0.06 0.06 0.06 0.08 0.13 0.15 0.10 0.08 0.06 0.08 0.09 0.07 0.05 0.05 0.06 0.07 0.06 0.05 0.04 0.04 0.03 0.02 0.02 0.01 0.01
0.00 0.00 0.00 0.00 0.00 0.00 0.00 0.00 0.00 0.00 0.00 0.00 0.00 0.00 0.01 0.01 0.01 0.02 0.01 0.02 0.02 0.03 0.04 0.04 0.04 0.04 0.05 0.07 0.10 0.13 0.11 0.08 0.08 0.10 0.10 0.09 0.08 0.07 0.06 0.06 0.05 0.04 0.04 0.04 0.04 0.04 0.03 0.02 0.01
0.00 0.00 0.00 0.00 0.00 0.00 0.00 0.00 0.00 0.00 0.00 0.00 0.00 0.01 0.00 0.01 0.01 0.02 0.02 0.02 0.02 0.03 0.04 0.05 0.05 0.05 0.05 0.07 0.10 0.11 0.12 0.10 0.12 0.15 0.12 0.09 0.10 0.09 0.07 0.06 0.04 0.04 0.04 0.04 0.04 0.04 0.04 0.02 0.01
0.00 0.00 0.00 0.00 0.00 0.00 0.00 0.00 0.00 0.00 0.00 0.00 0.00 0.01 0.01 0.01 0.02 0.02 0.02 0.02 0.02 0.02 0.03 0.05 0.06 0.05 0.05 0.06 0.09 0.11 0.12 0.15 0.14 0.13 0.14 0.10 0.10 0.10 0.09 0.08 0.06 0.05 0.04 0.03 0.03 0.04 0.04 0.03 0.02
0.00 0.00 0.00 0.00 0.00 0.00 0.00 0.00 0.00 0.00 0.00 0.00 0.01 0.01 0.01 0.01 0.01 0.01 0.01 0.02 0.02 0.01 0.02 0.03 0.04 0.05 0.06 0.09 0.11 0.12 0.11 0.13 0.13 0.11 0.11 0.10 0.09 0.09 0.08 0.06 0.06 0.05 0.05 0.04 0.04 0.04 0.04 0.03 0.03
MSLP
1009.10 1010.12 1011.19 1012.12 1012.76 1013.01 1012.87 1012.40 1011.75 1011.08 1010.54 1010.23 1010.16 1010.29 1010.53 1010.77 1010.90 1010.89 1010.72 1010.48 1010.24 1010.10 1010.13 1010.36 1010.78 1011.32 1011.88 1012.40 1012.81 1013.09 1013.25 1013.34 1013.42 1013.53 1013.71 1013.96 1014.25 1014.55 1014.80 1014.98 1015.07 1015.08 1015.03 1014.96 1014.90 1014.88 1014.91 1015.00 1015.14
1009.34 1010.48 1011.61 1012.53 1013.09 1013.21 1012.90 1012.26 1011.44 1010.62 1009.96 1009.54 1009.40 1009.48 1009.69 1009.92 1010.07 1010.10 1010.01 1009.85 1009.72 1009.68 1009.82 1010.14 1010.63 1011.22 1011.84 1012.39 1012.84 1013.16 1013.37 1013.51 1013.63 1013.78 1013.98 1014.22 1014.50 1014.77 1014.99 1015.15 1015.23 1015.24 1015.20 1015.16 1015.13 1015.14 1015.21 1015.31 1015.46
1009.78 1010.99 1012.11 1012.95 1013.38 1013.34 1012.87 1012.08 1011.14 1010.22 1009.49 1009.03 1008.85 1008.90 1009.09 1009.31 1009.47 1009.52 1009.47 1009.38 1009.33 1009.38 1009.60 1010.00 1010.55 1011.19 1011.83 1012.41 1012.88 1013.24 1013.48 1013.66 1013.81 1013.98 1014.18 1014.42 1014.67 1014.91 1015.11 1015.25 1015.33 1015.36 1015.37 1015.38 1015.41 1015.47 1015.57 1015.71 1015.87
1010.39 1011.61 1012.65 1013.36 1013.62 1013.41 1012.78 1011.88 1010.86 1009.92 1009.18 1008.73 1008.55 1008.61 1008.79 1009.00 1009.15 1009.21 1009.18 1009.14 1009.15 1009.27 1009.55 1010.00 1010.58 1011.24 1011.89 1012.47 1012.95 1013.32 1013.58 1013.78 1013.95 1014.13 1014.34 1014.56 1014.79 1015.01 1015.19 1015.33 1015.43 1015.51 1015.57 1015.65 1015.75 1015.88 1016.03 1016.20 1016.37
1011.12 1012.27 1013.17 1013.69 1013.75 1013.36 1012.61 1011.63 1010.60 1009.69 1009.02 1008.62 1008.50 1008.59 1008.78 1008.98 1009.11 1009.17 1009.16 1009.14 1009.19 1009.36 1009.68 1010.15 1010.74 1011.39 1012.02 1012.58 1013.04 1013.39 1013.65 1013.86 1014.04 1014.23 1014.44 1014.66 1014.89 1015.10 1015.28 1015.43 1015.57 1015.69 1015.83 1015.98 1016.16 1016.35 1016.55 1016.74 1016.93
1011.86 1012.87 1013.57 1013.86 1013.71 1013.15 1012.30 1011.30 1010.31 1009.50 1008.94 1008.65 1008.62 1008.76 1008.97 1009.17 1009.30 1009.34 1009.34 1009.35 1009.42 1009.62 1009.96 1010.44 1011.01 1011.62 1012.20 1012.71 1013.12 1013.45 1013.70 1013.91 1014.10 1014.31 1014.53 1014.77 1015.00 1015.21 1015.41 1015.58 1015.76 1015.94 1016.14 1016.35 1016.59 1016.83 1017.06 1017.28 1017.46
1012.47 1013.28 1013.74 1013.78 1013.42 1012.72 1011.80 1010.82 1009.94 1009.26 1008.85 1008.71 1008.78 1008.99 1009.23 1009.44 1009.57 1009.62 1009.63 1009.66 1009.76 1009.98 1010.33 1010.79 1011.32 1011.88 1012.39 1012.83 1013.19 1013.48 1013.72 1013.93 1014.15 1014.39 1014.64 1014.90 1015.15 1015.39 1015.61 1015.81 1016.01 1016.22 1016.46 1016.72 1016.99 1017.26 1017.51 1017.73 1017.91
1012.85 1013.43 1013.63 1013.43 1012.87 1012.06 1011.12 1010.20 1009.43 1008.92 1008.67 1008.68 1008.86 1009.14 1009.42 1009.65 1009.79 1009.85 1009.89 1009.95 1010.08 1010.33 1010.69 1011.13 1011.62 1012.11 1012.56 1012.93 1013.24 1013.49 1013.72 1013.95 1014.21 1014.49 1014.79 1015.09 1015.38 1015.64 1015.87 1016.08 1016.29 1016.51 1016.76 1017.03 1017.31 1017.58 1017.83 1018.04 1018.21
1012.95 1013.29 1013.23 1012.81 1012.10 1011.21 1010.27 1009.44 1008.81 1008.45 1008.36 1008.50 1008.77 1009.11 1009.43 1009.68 1009.84 1009.93 1010.01 1010.12 1010.31 1010.59 1010.96 1011.40 1011.86 1012.30 1012.68 1013.00 1013.26 1013.49 1013.73 1013.99 1014.29 1014.62 1014.98 1015.33 1015.66 1015.94 1016.18 1016.39 1016.59 1016.79 1017.01 1017.26 1017.52 1017.77 1018.01 1018.21 1018.37
1012.79 1012.90 1012.63 1012.03 1011.20 1010.27 1009.37 1008.62 1008.12 1007.89 1007.92 1008.15 1008.49 1008.86 1009.20 1009.47 1009.66 1009.80 1009.94 1010.12 1010.38 1010.71 1011.12 1011.57 1012.01 1012.42 1012.76 1013.04 1013.28 1013.51 1013.76 1014.06 1014.41 1014.81 1015.22 1015.62 1015.98 1016.28 1016.52 1016.70 1016.87 1017.03 1017.21 1017.41 1017.63 1017.86 1018.07 1018.26 1018.42
1012.46 1012.38 1011.93 1011.21 1010.31 1009.37 1008.52 1007.86 1007.45 1007.31 1007.41 1007.68 1008.04 1008.42 1008.76 1009.04 1009.27 1009.47 1009.69 1009.95 1010.29 1010.70 1011.16 1011.64 1012.09 1012.48 1012.81 1013.08 1013.32 1013.57 1013.84 1014.18 1014.58 1015.02 1015.48 1015.91 1016.29 1016.60 1016.83 1016.99 1017.12 1017.23 1017.36 1017.51 1017.69 1017.88 1018.08 1018.27 1018.44
1012.10 1011.86 1011.30 1010.50 1009.58 1008.66 1007.86 1007.26 1006.90 1006.80 1006.91 1007.17 1007.50 1007.85 1008.18 1008.47 1008.74 1009.00 1009.30 1009.67 1010.10 1010.59 1011.12 1011.64 1012.12 1012.53 1012.88 1013.16 1013.42 1013.68 1013.99 1014.35 1014.78 1015.25 1015.73 1016.18 1016.57 1016.87 1017.10 1017.24 1017.33 1017.40 1017.48 1017.59 1017.74 1017.91 1018.10 1018.30 1018.50
1011.82 1011.48 1010.86 1010.04 1009.13 1008.25 1007.49 1006.93 1006.59 1006.47 1006.53 1006.72 1006.99 1007.29 1007.59 1007.88 1008.18 1008.51 1008.90 1009.35 1009.88 1010.45 1011.04 1011.62 1012.14 1012.60 1012.98 1013.30 1013.58 1013.87 1014.19 1014.57 1015.00 1015.46 1015.93 1016.38 1016.76 1017.06 1017.27 1017.41 1017.49 1017.54 1017.61 1017.70 1017.82 1017.99 1018.19 1018.41 1018.64
1011.71 1011.33 1010.69 1009.89 1009.03 1008.20 1007.48 1006.92 1006.55 1006.37 1006.34 1006.43 1006.60 1006.82 1007.08 1007.37 1007.70 1008.10 1008.56 1009.09 1009.69 1010.33 1010.98 1011.61 1012.19 1012.69 1013.12 1013.48 1013.80 1014.11 1014.44 1014.80 1015.20 1015.62 1016.05 1016.46 1016.82 1017.12 1017.34 1017.49 1017.59 1017.66 1017.74 1017.84 1017.97 1018.15 1018.37 1018.61 1018.87
1011.80 1011.40 1010.80 1010.05 1009.26 1008.49 1007.80 1007.22 1006.80 1006.52 1006.37 1006.33 1006.39 1006.53 1006.75 1007.03 1007.39 1007.83 1008.35 1008.94 1009.58 1010.27 1010.95 1011.62 1012.24 1012.79 1013.27 1013.68 1014.04 1014.37 1014.69 1015.01 1015.35 1015.71 1016.07 1016.42 1016.75 1017.04 1017.28 1017.47 1017.62 1017.75 1017.87 1018.01 1018.17 1018.37 1018.61 1018.87 1019.15
1012.03 1011.66 1011.11 1010.45 1009.74 1009.03 1008.37 1007.77 1007.27 1006.87 1006.59 1006.42 1006.37 1006.43 1006.61 1006.89 1007.27 1007.74 1008.29 1008.90 1009.56 1010.25 1010.94 1011.62 1012.26 1012.86 1013.38 1013.85 1014.24 1014.59 1014.89 1015.16 1015.43 1015.70 1015.98 1016.27 1016.56 1016.84 1017.12 1017.37 1017.59 1017.79 1017.99 1018.18 1018.38 1018.61 1018.86 1019.14 1019.43
1012.32 1011.99 1011.54 1010.99 1010.38 1009.74 1009.10 1008.48 1007.90 1007.38 1006.96 1006.67 1006.51 1006.51 1006.65 1006.93 1007.32 1007.81 1008.36 1008.96 1009.59 1010.24 1010.90 1011.56 1012.21 1012.83 1013.40 1013.92 1014.36 1014.72 1015.01 1015.23 1015.42 1015.60 1015.79 1016.01 1016.26 1016.55 1016.86 1017.18 1017.50 1017.79 1018.07 1018.32 1018.57 1018.82 1019.08 1019.36 1019.64
1012.55 1012.31 1011.97 1011.55 1011.07 1010.52 1009.91 1009.26 1008.60 1007.98 1007.43 1007.02 1006.77 1006.70 1006.81 1007.08 1007.48 1007.96 1008.49 1009.04 1009.61 1010.19 1010.79 1011.40 1012.03 1012.66 1013.28 1013.84 1014.33 1014.72 1015.01 1015.21 1015.34 1015.44 1015.55 1015.70 1015.92 1016.21 1016.56 1016.95 1017.35 1017.74 1018.09 1018.41 1018.70 1018.96 1019.22 1019.49 1019.76
1012.66 1012.52 1012.33 1012.08 1011.74 1011.29 1010.73 1010.07 1009.34 1008.61 1007.94 1007.41 1007.08 1006.95 1007.03 1007.29 1007.68 1008.14 1008.63 1009.11 1009.59 1010.07 1010.58 1011.12 1011.71 1012.34 1012.98 1013.60 1014.14 1014.58 1014.89 1015.08 1015.18 1015.23 1015.29 1015.39 1015.59 1015.88 1016.26 1016.71 1017.18 1017.65 1018.07 1018.43 1018.75 1019.02 1019.27 1019.52 1019.78
1012.59 1012.60 1012.59 1012.53 1012.36 1012.04 1011.54 1010.87 1010.08 1009.25 1008.46 1007.83 1007.40 1007.22 1007.26 1007.50 1007.87 1008.30 1008.74 1009.14 1009.52 1009.88 1010.28 1010.73 1011.27 1011.88 1012.54 1013.20 1013.81 1014.31 1014.67 1014.89 1014.99 1015.02 1015.05 1015.13 1015.30 1015.60 1016.01 1016.50 1017.02 1017.54 1018.00 1018.40 1018.73 1019.00 1019.24 1019.48 1019.73
1012.39 1012.58 1012.78 1012.93 1012.95 1012.76 1012.33 1011.66 1010.82 1009.89 1008.99 1008.24 1007.72 1007.47 1007.47 1007.69 1008.03 1008.43 1008.81 1009.13 1009.40 1009.66 1009.93 1010.29 1010.76 1011.34 1012.01 1012.71 1013.38 1013.95 1014.38 1014.65 1014.78 1014.83 1014.86 1014.94 1015.11 1015.41 1015.83 1016.34 1016.89 1017.43 1017.92 1018.33 1018.66 1018.93 1019.16 1019.39 1019.64
1012.10 1012.50 1012.94 1013.32 1013.53 1013.48 1013.12 1012.46 1011.55 1010.52 1009.51 1008.65 1008.03 1007.70 1007.66 1007.84 1008.16 1008.53 1008.86 1009.12 1009.30 1009.45 1009.62 1009.88 1010.27 1010.81 1011.46 1012.19 1012.90 1013.54 1014.04 1014.39 1014.58 1014.68 1014.74 1014.83 1015.02 1015.31 1015.73 1016.24 1016.80 1017.34 1017.83 1018.24 1018.57 1018.83 1019.06 1019.29 1019.55
1011.81 1012.43 1013.10 1013.71 1014.11 1014.19 1013.90 1013.23 1012.27 1011.15 1010.02 1009.04 1008.32 1007.91 1007.82 1007.97 1008.27 1008.62 1008.93 1009.14 1009.27 1009.34 1009.42 1009.58 1009.89 1010.37 1010.99 1011.71 1012.45 1013.13 1013.70 1014.12 1014.39 1014.55 1014.66 1014.79 1014.99 1015.30 1015.71 1016.21 1016.74 1017.27 1017.75 1018.15 1018.47 1018.73 1018.96 1019.21 1019.48
1011.58 1012.41 1013.30 1014.11 1014.67 1014.86 1014.62 1013.94 1012.93 1011.71 1010.48 1009.40 1008.58 1008.11 1007.96 1008.09 1008.39 1008.74 1009.04 1009.24 1009.33 1009.35 1009.36 1009.45 1009.68 1010.08 1010.64 1011.32 1012.06 1012.76 1013.37 1013.85 1014.19 1014.43 1014.60 1014.78 1015.01 1015.32 1015.73 1016.20 1016.71 1017.22 1017.67 1018.05 1018.37 1018.63 1018.88 1019.13 1019.43
1011.42 1012.43 1013.50 1014.46 1015.15 1015.42 1015.20 1014.51 1013.45 1012.17 1010.85 1009.68 1008.80 1008.26 1008.09 1008.21 1008.51 1008.88 1009.20 1009.41 1009.50 1009.50 1009.47 1009.49 1009.64 1009.96 1010.44 1011.05 1011.74 1012.43 1013.06 1013.58 1013.98 1014.28 1014.52 1014.75 1015.01 1015.34 1015.74 1016.20 1016.69 1017.16 1017.59 1017.96 1018.27 1018.54 1018.79 1019.06 1019.37
1011.32 1012.46 1013.65 1014.70 1015.45 1015.76 1015.55 1014.85 1013.76 1012.43 1011.07 1009.85 1008.93 1008.37 1008.18 1008.30 1008.63 1009.03 1009.38 1009.63 1009.75 1009.75 1009.70 1009.68 1009.75 1009.98 1010.36 1010.88 1011.50 1012.14 1012.75 1013.28 1013.72 1014.08 1014.38 1014.66 1014.97 1015.33 1015.73 1016.18 1016.64 1017.09 1017.50 1017.86 1018.17 1018.45 1018.71 1018.99 1019.31
1011.24 1012.43 1013.66 1014.74 1015.50 1015.80 1015.58 1014.88 1013.78 1012.45 1011.09 1009.88 1008.96 1008.41 1008.23 1008.37 1008.72 1009.15 1009.56 1009.85 1010.00 1010.03 1009.98 1009.93 1009.95 1010.09 1010.37 1010.79 1011.31 1011.88 1012.44 1012.96 1013.42 1013.82 1014.17 1014.51 1014.87 1015.25 1015.68 1016.12 1016.58 1017.01 1017.41 1017.76 1018.07 1018.36 1018.63 1018.92 1019.23
1011.11 1012.29 1013.48 1014.51 1015.22 1015.48 1015.25 1014.55 1013.49 1012.21 1010.90 1009.75 1008.88 1008.37 1008.23 1008.39 1008.77 1009.23 1009.67 1010.01 1010.20 1010.26 1010.23 1010.17 1010.15 1010.22 1010.42 1010.74 1011.16 1011.64 1012.14 1012.63 1013.09 1013.51 1013.90 1014.30 1014.70 1015.12 1015.57 1016.03 1016.49 1016.92 1017.31 1017.67 1017.99 1018.28 1018.56 1018.86 1019.16
1010.91 1012.00 1013.09 1014.01 1014.61 1014.81 1014.55 1013.88 1012.88 1011.70 1010.52 1009.48 1008.71 1008.27 1008.18 1008.37 1008.76 1009.24 1009.70 1010.06 1010.29 1010.39 1010.39 1010.34 1010.31 1010.34 1010.47 1010.71 1011.03 1011.43 1011.87 1012.31 1012.76 1013.19 1013.62 1014.05 1014.50 1014.96 1015.44 1015.92 1016.39 1016.83 1017.23 1017.60 1017.93 1018.24 1018.53 1018.83 1019.13
1010.63 1011.59 1012.51 1013.27 1013.74 1013.85 1013.58 1012.95 1012.06 1011.03 1010.01 1009.13 1008.49 1008.15 1008.11 1008.33 1008.72 1009.19 1009.64 1010.01 1010.26 1010.39 1010.43 1010.41 1010.39 1010.41 1010.51 1010.69 1010.95 1011.28 1011.65 1012.06 1012.48 1012.92 1013.36 1013.83 1014.31 1014.81 1015.32 1015.82 1016.30 1016.76 1017.18 1017.56 1017.91 1018.24 1018.55 1018.86 1019.17
Thickness
5805 5803 5800 5790 5772 5755 5754 5768 5779 5782 5785 5794 5796 5790 5781 5775 5767 5765 5785 5793 5790 5784 5780 5776 5773 5771 5769 5767 5765 5764 5763 5762 5762 5761 5760 5760 5759 5758 5757 5756 5756 5755 5754 5753 5752 5751 5750 5749 5748
5806 5802 5794 5781 5760 5743 5754 5775 5780 5787 5794 5798 5797 5793 5785 5782 5787 5784 5786 5790 5789 5785 5780 5776 5773 5770 5768 5766 5764 5763 5762 5761 5760 5760 5759 5758 5757 5756 5755 5754 5754 5753 5752 5751 5750 5749 5748 5747 5746
5807 5803 5785 5770 5758 5751 5763 5782 5788 5797 5802 5799 5794 5794 5789 5784 5788 5788 5791 5791 5787 5782 5778 5775 5772 5769 5767 5765 5763 5761 5760 5759 5759 5758 5757 5756 5755 5754 5753 5753 5752 5750 5750 5749 5748 5747 5746 5745 5744
5804 5792 5780 5764 5761 5770 5780 5790 5796 5795 5799 5802 5796 5787 5791 5797 5795 5794 5794 5790 5784 5780 5776 5773 5770 5768 5765 5764 5762 5761 5759 5758 5757 5757 5756 5755 5754 5753 5752 5751 5750 5748 5748 5747 5746 5745 5744 5743 5742
5800 5782 5767 5756 5764 5780 5794 5801 5801 5794 5795 5799 5795 5785 5785 5796 5801 5797 5793 5788 5782 5778 5774 5771 5768 5766 5764 5762 5760 5759 5758 5757 5756 5755 5754 5753 5752 5751 5750 5749 5748 5747 5745 5744 5744 5742 5741 5741 5740
5787 5775 5755 5750 5765 5786 5799 5807 5804 5798 5797 5798 5794 5785 5783 5793 5795 5793 5791 5785 5781 5777 5773 5769 5767 5764 5762 5760 5758 5757 5756 5755 5754 5753 5752 5751 5750 5749 5748 5747 5746 5745 5744 5742 5741 5740 5739 5739 5738
5781 5767 5758 5761 5766 5781 5800 5810 5803 5797 5796 5799 5800 5784 5782 5788 5791 5791 5787 5782 5777 5774 5770 5767 5765 5762 5760 5758 5756 5755 5754 5753 5752 5751 5750 5750 5749 5748 5747 5746 5745 5743 5742 5740 5739 5739 5738 5737 5736
5789 5769 5762 5761 5768 5780 5803 5809 5810 5803 5801 5810 5805 5787 5781 5788 5790 5787 5782 5777 5773 5770 5767 5765 5763 5760 5758 5756 5755 5753 5752 5751 5750 5749 5749 5748 5747 5746 5745 5744 5743 5742 5740 5739 5738 5737 5736 5735 5734
5794 5764 5754 5766 5775 5787 5805 5804 5810 5816 5808 5807 5807 5801 5799 5796 5789 5781 5775 5770 5767 5765 5764 5762 5760 5757 5755 5754 5753 5751 5750 5749 5748 5748 5747 5746 5745 5744 5743 5742 5741 5740 5738 5737 5736 5735 5734 5733 5732
5783 5759 5768 5785 5794 5798 5806 5807 5808 5804 5799 5799 5800 5801 5800 5793 5786 5778 5772 5767 5763 5761 5760 5759 5756 5754 5753 5751 5750 5749 5748 5747 5746 5746 5745 5744 5743 5742 5741 5740 5739 5738 5737 5736 5734 5733 5732 5731 5730
5784 5774 5786 5797 5804 5806 5806 5809 5813 5802 5792 5801 5801 5798 5795 5789 5782 5777 5772 5769 5764 5761 5758 5756 5754 5752 5750 5749 5747 5746 5745 5745 5744 5743 5742 5741 5740 5739 5739 5738 5737 5736 5735 5734 5733 5731 5730 5729 5728
5785 5789 5796 5802 5810 5808 5808 5810 5807 5805 5809 5820 5816 5807 5798 5789 5783 5779 5773 5767 5762 5758 5756 5753 5751 5750 5748 5746 5745 5743 5742 5742 5741 5740 5740 5739 5738 5737 5737 5736 5735 5734 5733 5732 5731 5730 5729 5728 5727
5789 5793 5802 5807 5809 5810 5811 5808 5808 5809 5819 5822 5816 5806 5798 5792 5786 5780 5774 5767 5762 5757 5754 5752 5749 5747 5745 5744 5742 5741 5740 5740 5739 5738 5737 5737 5736 5736 5735 5734 5734 5733 5732 5731 5730 5728 5728 5727 5726
5794 5796 5800 5805 5808 5812 5808 5808 5807 5809 5817 5814 5809 5802 5796 5791 5785 5777 5770 5764 5760 5756 5752 5749 5746 5744 5742 5741 5739 5739 5738 5737 5736 5736 5736 5735 5735 5734 5734 5733 5732 5732 5731 5730 5729 5727 5726 5726 5725
5796 5789 5792 5802 5806 5809 5807 5797 5803 5812 5812 5807 5803 5799 5793 5788 5783 5779 5774 5767 5760 5754 5751 5747 5743 5740 5738 5737 5736 5736 5736 5735 5734 5734 5734 5734 5734 5733 5732 5731 5731 5731 5730 5730 5728 5726 5725 5725 5724
5786 5776 5770 5790 5801 5805 5796 5780 5804 5810 5806 5800 5798 5794 5789 5784 5782 5779 5774 5767 5761 5754 5749 5745 5743 5738 5735 5735 5734 5733 5733 5733 5732 5732 5731 5732 5732 5732 5731 5730 5730 5730 5729 5729 5727 5725 5724 5723 5722
5761 5754 5761 5776 5796 5796 5788 5780 5799 5807 5803 5796 5793 5790 5786 5780 5778 5777 5774 5769 5761 5755 5749 5742 5740 5736 5733 5732 5731 5731 5731 5731 5730 5729 5729 5730 5731 5731 5730 5729 5729 5729 5728 5728 5726 5724 5723 5721 5720
5750 5754 5757 5763 5783 5786 5780 5781 5794 5801 5799 5793 5790 5786 5783 5779 5778 5777 5773 5768 5762 5756 5750 5743 5738 5734 5733 5730 5728 5727 5728 5728 5728 5728 5728 5729 5729 5729 5729 5728 5728 5728 5727 5726 5725 5723 5722 5720 5719
5762 5756 5752 5765 5783 5779 5774 5776 5786 5793 5792 5788 5784 5782 5779 5780 5780 5777 5772 5768 5762 5755 5749 5743 5738 5734 5732 5729 5726 5724 5724 5725 5726 5726 5727 5728 5728 5728 5728 5728 5727 5727 5726 5725 5724 5722 5720 5718 5717
5759 5751 5751 5765 5781 5777 5770 5772 5783 5787 5787 5787 5783 5780 5779 5777 5775 5773 5769 5766 5762 5756 5750 5745 5740 5736 5733 5731 5729 5726 5725 5724 5724 5725 5726 5727 5727 5728 5727 5727 5726 5726 5725 5724 5723 5722 5719 5717 5717
5755 5750 5753 5756 5768 5771 5766 5762 5772 5781 5784 5785 5784 5782 5779 5777 5773 5770 5767 5764 5760 5755 5751 5747 5741 5738 5734 5732 5728 5725 5722 5720 5720 5721 5722 5725 5726 5727 5727 5726 5726 5725 5725 5723 5722 5722 5719 5715 5714
5747 5764 5762 5759 5748 5740 5752 5732 5759 5768 5771 5776 5777 5777 5777 5777 5774 5771 5767 5763 5760 5757 5753 5747 5742 5737 5734 5732 5728 5725 5723 5720 5720 5721 5722 5724 5724 5725 5725 5725 5725 5724 5724 5723 5722 5721 5720 5717 5714
5760 5771 5765 5758 5747 5737 5740 5730 5742 5759 5762 5769 5774 5775 5776 5775 5773 5770 5768 5765 5762 5758 5753 5748 5742 5738 5736 5733 5730 5727 5725 5723 5721 5720 5720 5721 5722 5724 5724 5724 5723 5722 5722 5722 5722 5720 5719 5718 5716
5774 5762 5750 5737 5729 5719 5733 5728 5732 5749 5762 5768 5772 5774 5774 5774 5772 5769 5767 5763 5759 5757 5753 5748 5742 5738 5736 5733 5731 5728 5725 5722 5719 5718 5718 5719 5719 5721 5722 5722 5721 5721 5721 5720 5720 5719 5718 5717 5716
5764 5737 5713 5713 5704 5710 5729 5726 5733 5762 5769 5771 5771 5771 5773 5772 5769 5765 5762 5760 5757 5755 5751 5747 5743 5738 5735 5732 5729 5728 5726 5723 5721 5720 5719 5718 5718 5719 5720 5720 5719 5719 5719 5718 5718 5717 5716 5716 5715
5751 5739 5712 5703 5701 5709 5724 5723 5746 5768 5772 5774 5774 5773 5772 5769 5767 5765 5762 5760 5757 5754 5750 5746 5742 5738 5735 5732 5729 5728 5727 5724 5723 5721 5720 5719 5718 5719 5719 5718 5718 5717 5717 5716 5715 5714 5714 5713 5713
5746 5737 5742 5716 5711 5707 5714 5730 5751 5767 5768 5769 5769 5769 5768 5767 5766 5764 5761 5759 5757 5754 5751 5747 5742 5738 5734 5732 5729 5727 5726 5724 5722 5721 5719 5718 5717 5717 5716 5715 5715 5715 5714 5713 5712 5711 5710 5709 5709
5764 5745 5724 5712 5699 5699 5715 5723 5732 5756 5759 5763 5764 5764 5765 5765 5764 5762 5760 5758 5756 5753 5749 5745 5742 5738 5734 5731 5728 5727 5725 5723 5721 5719 5717 5716 5716 5715 5713 5712 5712 5711 5711 5710 5709 5708 5707 5705 5705
5748 5741 5728 5713 5713 5700 5700 5719 5753 5758 5763 5762 5763 5765 5765 5763 5762 5760 5758 5757 5754 5751 5747 5743 5739 5736 5733 5730 5727 5725 5723 5721 5719 5718 5717 5715 5714 5713 5711 5710 5709 5708 5707 5706 5705 5704 5703 5701 5700
5760 5746 5731 5721 5713 5707 5705 5721 5764 5763 5765 5765 5764 5765 5765 5763 5761 5759 5756 5755 5752 5748 5745 5741 5738 5735 5732 5729 5726 5723 5722 5719 5718 5716 5715 5713 5711 5710 5709 5708 5706 5705 5703 5702 5701 5700 5699 5697 5695